Regional Weather Roundup
Issued by NWS Charleston, WV

Home | Current Version | Previous Version | Graphics & Text | Print | Product List | Glossary On
Versions: 1 2 3 4 5 6 7 8 9 10 11 12 13 14 15 16 17 18 19 20 21 22 23 24 25 26 27 28
000
ASUS41 KRLX 052210
RWRRLX
West Virginia Regional Weather Roundup
National Weather Service Charleston WV
600 PM EDT THU MAY 05 2016

Note: "fair" indicates few or no clouds below 12,000 feet with no
significant weather and/or obstructions to visibility.

WVZ003-052300-
Northern Panhandle of West Virginia

CITY           SKY/WX    TMP DP  RH WIND       PRES   REMARKS
WHEELING       CLOUDY    56  47  71 NW22G31   29.72R
$$

WVZ009-052300-
Northwest West Virginia

CITY           SKY/WX    TMP DP  RH WIND       PRES   REMARKS
PARKERSBURG    CLOUDY    59  49  69 NW10      29.74R
$$

WVZ006-052300-
Western West Virginia

CITY           SKY/WX    TMP DP  RH WIND       PRES   REMARKS
HUNTINGTON     CLOUDY    54  43  66 NW12G21   29.78R
$$

WVZ015-052300-
West Central West Virginia

CITY           SKY/WX    TMP DP  RH WIND       PRES   REMARKS
CHARLESTON     CLOUDY    49  45  86 SW7       29.74S
$$

WVZ022-031-052300-
North Central West Virginia

CITY           SKY/WX    TMP DP  RH WIND       PRES   REMARKS
CLARKSBURG     LGT RAIN  52  48  86 NW9       29.69R FOG
MORGANTOWN     PTSUNNY   53  46  77 N7        29.69R
$$

WVZ025-035-042-045-052300-
Southern West Virginia

CITY           SKY/WX    TMP DP  RH WIND       PRES   REMARKS
BECKLEY        LGT RAIN  42  40  92 NW8       29.72S
LOGAN          NOT AVBL
BLUEFIELD      LGT RAIN  38  36  92 NW8G20    29.74R
LEWISBURG      CLOUDY    46  40  80 W5        29.69R
$$

WVZ047-052300-
Northern Mountains of West Virginia

CITY           SKY/WX    TMP DP  RH WIND       PRES   REMARKS
ELKINS         HVY RAIN  50  46  86 NW6       29.68R FOG
$$

WVZ052-052300-
Eastern Panhandle of West Virginia

CITY           SKY/WX    TMP DP  RH WIND       PRES   REMARKS
MARTINSBURG    CLOUDY    56  46  69 N14       29.64S
PETERSBURG     CLOUDY    59  50  71 CALM      29.65F
$$




USA.gov is the U.S. government's official web portal to all federal, state and local government web resources and services.